Location: *
(37.0893°N, 2.7843°W)
Time: 10:17:40
(UTC+00:00)

Daily predictions for brighter satellites

Satellite Brightness Start Highest point End
(mag) Time Altitude Azimuth Time Altitude Azimuth Time Altitude Azimuth
CZ-3B R/B 4.3 18:34:51 10° S 18:39:49 44° ESE 19:00:26 10° NE
CSL-04 Rocket 3.6 18:47:19 10° SSE 18:52:36 69° ENE 18:57:52 10° N
DELTA 2 R/B (1) 4.4 18:47:21 10° W 18:52:41 47° SSW 18:58:00 10° SE
Meteor 2-21 4.4 18:48:09 10° N 18:54:12 74° E 19:00:16 10° SSE
Atlas Centaur 2 4.2 18:52:58 10° WSW 18:57:01 18° SSW 19:00:34 10° S
Cosmos 1626 4.0 18:56:12 10° NE 18:57:54 13° ENE 18:59:36 10° E
STARLINK-1236 3.8 18:54:01 10° SW 18:58:02 73° NW 19:02:05 10° NE
Delta 2 Rocket 3.8 18:54:09 10° W 18:58:34 69° S 19:03:37 10° ESE
NOAA 11 4.5 18:53:11 10° S 18:58:36 75° WSW 19:04:04 10° NNW
GEOS 3 Rocket 4.1 18:54:53 10° SSE 18:59:55 63° WSW 19:05:05 10° NW
Okean 1-7 Rocket 4.4 18:57:35 10° NNE 19:01:30 31° ENE 19:05:23 10° SE
Cosmos 1242 Rocket 2.9 18:58:22 10° NNW 19:01:49 67° W 19:05:16 10° S
ATLAS CENTAUR Rocket 3.9 18:58:29 10° WSW 19:03:42 51° SSE 19:27:07 11° E
H-2A R/B 2.9 18:59:33 10° SE 19:04:09 30° ENE 19:08:41 10° N
STARLINK-1269 4.1 19:03:28 10° WSW 19:07:27 60° NW 19:11:28 10° NE
Okean 1 Rocket 4.5 19:03:45 10° SSW 19:07:55 43° W 19:12:05 10° N
Cosmos 1544 Rocket 4.2 19:05:47 10° SSE 19:09:42 33° E 19:13:40 10° NNE
STARLINK-1118 3.9 19:08:35 10° NNW 19:10:16 19° NE 19:11:31 13° ENE
STARLINK-1200 4.3 19:08:12 10° WSW 19:12:10 54° NW 19:16:08 10° NE
HJ-1C 3.4 19:08:55 10° SSE 19:12:11 57° ENE 19:15:29 10° N
Cosmos 1745 Rocket 4.0 19:09:38 10° N 19:15:54 65° E 19:22:04 10° SSE
STARLINK-1192 4.5 19:12:53 10° WSW 19:16:49 49° NW 19:20:46 10° NE
Cosmos 2237 Rocket 3.1 19:12:33 10° SW 19:18:02 55° WNW 19:23:34 10° NNE
Cosmos 1805 3.4 19:14:23 10° S 19:18:17 78° W 19:22:12 10° N
USA 234 3.2 19:12:13 10° NE 19:18:45 71° SE 19:25:16 10° SW
Meteor 2-5 Rocket 3.7 19:15:32 10° N 19:21:11 73° E 19:26:42 10° SSE
ADEOS Rocket 4.0 19:17:25 10° N 19:23:53 53° WNW 19:29:41 10° SW
Cosmos 1269 Rocket 4.0 19:20:11 10° S 19:25:25 70° ESE 19:30:42 10° NNE
ATLAS 3B CENTAUR R/B 3.8 19:23:32 10° WSW 19:27:55 17° SW 19:30:45 10° S
Cosmos 2278 Rocket 2.6 19:23:42 10° NNW 19:29:20 67° WSW 19:34:56 10° S
CZ-2C R/B 3.7 19:27:06 10° NE 19:30:50 20° E 19:32:37 17° ESE
STARLINK-1066 4.5 19:28:28 10° NNW 19:31:05 23° NNE 19:32:18 18° ENE
STARLINK-1081 4.4 19:28:57 10° NNW 19:31:31 23° NE 19:32:41 18° ENE
CZ-4 R/B 4.0 19:28:50 10° SSW 19:31:52 22° W 19:34:54 10° NW
STARLINK-1070 4.4 19:29:23 10° NNW 19:31:58 23° NNE 19:33:06 19° ENE
ARGOS 3.5 19:27:02 10° SE 19:32:11 46° ENE 19:37:19 10° N
STARLINK-1069 4.4 19:29:47 10° NNW 19:32:24 23° NE 19:33:34 19° ENE
STARLINK-1085 4.4 19:30:13 10° NNW 19:32:51 24° NNE 19:34:00 19° ENE
STARLINK-1086 4.4 19:30:44 10° NNW 19:33:20 24° NE 19:34:25 19° ENE
STARLINK-1095 4.4 19:31:09 10° NNW 19:33:47 24° NE 19:34:50 20° ENE
STARLINK-1077 4.4 19:31:36 10° NNW 19:34:13 24° NE 19:35:16 20° ENE
STARLINK-1075 4.4 19:32:03 10° NNW 19:34:41 24° NE 19:35:42 20° ENE
OAO 2 Rocket 4.2 19:30:13 10° W 19:35:02 41° SSW 19:38:32 17° SE
STARLINK-1093 4.4 19:32:27 10° NNW 19:35:08 25° NE 19:36:11 21° ENE
STARLINK-1074 4.3 19:32:53 10° NNW 19:35:35 25° NE 19:36:36 21° ENE
STARLINK-1087 4.3 19:33:23 10° NNW 19:36:02 25° NE 19:37:00 21° ENE
MOS 1 4.4 19:30:58 10° SSE 19:36:28 56° ENE 19:41:58 10° N
STARLINK-1088 4.3 19:33:50 10° NNW 19:36:29 25° NE 19:37:26 21° ENE
Meteor 1-24 Rocket 3.5 19:31:01 10° N 19:36:31 72° E 19:41:49 10° SSE
STARLINK-1115 4.3 19:34:14 10° NNW 19:36:57 26° NE 19:37:55 22° ENE
STARLINK-1076 4.3 19:34:40 10° NNW 19:37:23 26° NE 19:38:20 22° ENE
STARLINK-1092 4.3 19:35:08 10° NNW 19:37:51 26° NE 19:38:47 22° ENE
STARLINK-1080 4.2 19:35:37 10° NNW 19:38:18 26° NE 19:39:10 22° ENE
Cosmos 1470 3.1 19:34:58 10° SSE 19:38:34 40° E 19:42:13 10° NNE
STARLINK-1090 4.2 19:36:02 10° NNW 19:38:44 26° NE 19:39:36 23° ENE
STARLINK-1089 4.2 19:36:29 10° NNW 19:39:12 26° NE 19:40:03 23° ENE
STARLINK-1107 4.2 19:36:56 10° NNW 19:39:40 26° NE 19:40:28 23° ENE
Cosmos 2315 Rocket 4.0 19:36:21 10° S 19:42:31 62° E 19:48:45 10° NNE
SL-08 RB Rocket 4.2 19:40:53 21° SE 19:43:24 39° ENE 19:47:37 10° N
SJ-6B 3.1 19:42:00 20° SE 19:44:30 47° ENE 19:48:27 10° N
SEDSat Delta rocket 4.4 19:41:53 10° SSW 19:45:14 21° SSE 19:45:59 20° SSE
Cosmos 1758 3.5 19:42:31 10° SSE 19:46:26 47° E 19:50:23 10° NNE
IRS-1A Rocket 4.3 19:44:47 10° SSE 19:50:23 88° WSW 19:56:09 10° NNW
CZ-2C R/B 2.9 19:45:41 10° SSE 19:50:50 74° ENE 19:55:45 10° N
Resurs 01 Rocket 3.0 19:53:04 21° ENE 19:53:04 21° ENE 19:56:07 10° NNE
FREGAT/IRIS 2.3 19:52:27 35° S 19:53:26 80° WSW 19:56:10 10° NNW
Abrixas rocket 1.8 19:50:33 10° SW 19:53:30 87° NNW 19:54:13 47° NE
Cosmos 304 Rocket 3.7 19:49:39 10° NNW 19:54:27 87° WSW 19:58:24 15° SSE
Cosmos 2369 Rocket 3.7 19:53:08 10° N 19:57:04 19° NE 19:57:50 18° ENE
Meteor 2-15 Rocket 4.4 19:52:38 10° S 19:58:34 58° E 20:04:31 10° NNE
STARLINK-1100 4.5 19:54:59 10° NNW 19:58:41 33° NE 19:59:31 30° ENE
SPOT 3 Rocket 3.7 20:00:43 29° SE 20:03:09 53° ENE 20:08:14 10° N
STARLINK-1083 4.4 19:59:33 10° NNW 20:03:19 36° NE 20:03:57 33° ENE
STARLINK-1125 4.2 20:04:09 10° NW 20:07:57 39° NE 20:08:23 37° NE
SL-14 R/B 3.5 20:04:23 10° NNW 20:08:25 72° W 20:11:03 21° S
CZ-3 Stage 3 4.4 20:01:39 10° SW 20:08:56 59° SSE 20:56:04 10° E
Meteor 2-15 4.4 20:03:56 10° S 20:09:59 88° W 20:16:04 10° N
Cosmos 1331 Rocket 4.4 20:05:27 10° NNW 20:10:33 62° WSW 20:14:49 15° S
STARLINK-1109 4.1 20:08:25 10° NW 20:12:17 42° NE 20:12:32 41° NE
Cosmos 1709 Rocket 4.0 20:07:18 10° N 20:13:31 81° W 20:19:37 10° S
IRIDIUM 103 4.4 20:08:35 10° N 20:13:40 51° E 20:14:45 44° ESE
MOS 1 Rocket 3.6 20:10:49 10° NNE 20:16:02 58° E 20:19:07 25° S
STARLINK-1091 4.0 20:13:04 10° NW 20:16:58 45° NE 20:17:02 45° NE
Ariane Rocket 4.2 20:13:54 10° S 20:18:40 41° W 20:23:28 10° NNW
OAO 3 Copernicus 4.2 20:16:57 10° W 20:21:58 71° S 20:22:44 59° SE
Cosmos 1943 Rocket 2.7 20:17:33 10° N 20:22:41 37° ENE 20:22:51 37° ENE
USA 186 3.7 20:20:49 15° SSW 20:23:05 31° W 20:26:11 10° NNW
Cosmos 2074 Rocket 4.2 20:19:57 10° N 20:26:01 48° E 20:26:45 46° E
Cosmos 1953 2.9 20:29:29 45° NNE 20:29:29 45° NNE 20:32:19 10° N
Meteor 2-10 4.0 20:28:33 59° ESE 20:28:51 60° E 20:34:13 10° NNE
NOSS 3-3 (A) 3.7 20:23:50 10° SSW 20:29:25 64° ESE 20:35:38 10° NE
NOSS 3-3 (C) 3.7 20:23:57 10° SSW 20:29:32 63° ESE 20:35:44 10° NE
STARLINK-1072 4.0 20:26:01 10° NW 20:29:27 53° N 20:29:27 53° N
SL-16 R/B 3.7 20:26:41 10° SW 20:31:53 37° WNW 20:37:06 10° N
IRIDIUM 106 4.2 20:26:44 10° N 20:31:59 78° E 20:32:57 59° SSE
Cosmos 1626 Rocket 4.0 20:28:45 10° NNW 20:33:04 59° W 20:34:23 40° SSW
Cosmos 1626 3.8 20:29:56 10° NNW 20:33:15 32° W 20:34:58 21° SW
TSX-5 4.1 20:29:15 10° NNW 20:33:49 68° NNE 20:33:49 68° NNE
STARLINK-1096 4.1 20:30:28 10° NW 20:33:44 53° N 20:33:44 53° N
STARLINK-1079 4.2 20:34:56 10° NW 20:38:03 51° NNW 20:38:03 51° NNW
Aureole 3 3.9 20:38:26 53° WSW 20:38:58 58° W 20:43:31 10° N
Cosmos 1602 Rocket 3.8 20:36:16 10° NNW 20:40:41 64° W 20:41:06 61° SW
STARLINK-1116 4.4 20:39:24 10° NW 20:42:22 48° NW 20:42:22 48° NW
H-2A R/B 3.8 20:38:49 10° SSW 20:43:28 30° W 20:48:04 10° NW
Cosmos 1603 3.5 20:47:43 10° SSW 20:53:25 89° NE 20:59:02 10° NNE
Meteor 1-16 Rocket 4.2 20:54:16 67° NNE 20:54:16 67° NNE 20:58:56 10° N
ATLAS 2AS CENTAUR R/B 4.2 20:51:07 10° NNW 20:56:54 23° NE 20:57:41 23° NE
CZ-2C R/B 3.6 21:06:26 10° N 21:11:17 42° WNW 21:14:10 22° SW
Cosmos 2184 Rocket 4.1 21:10:32 10° NNW 21:16:48 68° W 21:17:03 67° WSW
Resurs 01 Rocket 3.7 21:30:39 25° WNW 21:30:39 25° WNW 21:33:02 10° NW
ATLAS 5 CENTAUR R/B 4.3 21:25:55 10° SW 22:06:15 14° ESE 22:14:56 10° E
Cosmos 2369 Rocket 3.3 21:35:55 10° NNW 21:39:39 40° NW 21:39:39 40° NW
Cosmos 1943 Rocket 4.2 22:01:40 10° NW 22:04:24 22° WNW 22:04:24 22° WNW
ATLAS 2AS CENTAUR R/B 4.2 22:41:24 10° NNW 22:45:07 32° NW 22:45:07 32° NW
